Probability
0 0 0 0 0 0 0 0 0 0 0 0 0 0 0 0 0 0 0 0 0 0 0 0 0 0 0 0 0 0 0 0 0 0 0 0 0 0
0 0 0 0 0 0 0 0 0 0 0 0 0 0 0 0 0 0 0 0 0 0 0 0 0 0 0 0 0 0 0 0 0 0 0 0 0 0
0 0 0 0 0 0 0 0 0 0 0 0 0 0 0 0 0 0 0 0 0 0 0 0 0 0 0 0 0 0 0 0 0 0 0 0 0 0
0 0 0 0 0 0 0 0 0 0 0 0 0 0 0 0 0 0 0 0 0 0 0 0 0 0 0 0 0 0 0 0 0 0 0 0 0 0
0 0 0 0 0 0 0 0 0 0 0 0 0 0 0 0 0 0 0 0 0 0 0 0 0 0 0 0 0 0 0 0 0 0 0 0 0 0
0 0 0 0 0 0 0 0 0 0 0 0 0 0 0 0 0 0 0 0 0 0 0 0 0 0 0 0 0 0 0 0 0 0 0 0 0 0
0 0 0 0 0 0 0 0 0 0 0 0 0 0 0 0 0 0 0 0 0 0 0 0 0 0 0 0 0 0 0 0 0 0 0 0 0 0
0 0 0 0 0 0 0 0 0 0 0 0 0 0 0 0 0 0 0 0 0 0 0 0 0 0 0 0 0 0 0 0 0 0 0 0 0 0
0 0 0 0 0 0 0 0 0 0 0 0 0 0 0 0 0 0 0 0 0 0 0 0 0 0 0 0 0 0 0 0 0 0 0 0 0 0
0 0 0 0 0 0 0 0 0 0 0 0 0 0 0 0 0 0 0 0 0 0 0 0 0 0 0 0 0 0 0 0 0 0 0 0 0 0
0 0 0 0 0 0 0 0 0 0 0 0 0 0 0 0 0 0 0 0 0 0 0 0 0 0 0 0 0 0 0 0 0 0 0 0 0 0
0 0 0 0 0 0 0 0 0 0 0 0 0 0 0 0 0 0 0 0 0 0 0 0 0 0 0 0 0 0 0 0 0 0 0 0 0 0
0 0 0 0 0 0 0 0 0 0 0 0 0 0 0 0 0 0 0 0 0 0 0 0 0 0 0 0 0 0 0 0 0 0 0 0 0 0
0 0 0 0 0 0 0 0 0 0 0 0 0 0 0 0 0 0 0 0 0 0 0 0 0 0 0 0 0 0 0 0 0 0 0 0 0 0
0 0 0 0 0 0 0 0 0 0 0 0 0 0 0 0 0 0 0 0 0 0 0 0 0 0 0 0 0 0 0 0 0 0 0 0 0 0
0 0 0 0 0 0 0 0 0 0 0 0 0 0 0 0 0 0 0 0 0 0 0 0 0 0 0 0 0 0 0 0 0 0 0 0 0 0
0 0 0 0 0 0 0 0 0 0 0 0 0 0 0 0 0 0 0 0 0 0 0 0 0 0 0 0 0 0 0 0 0 0 0 0 0 0
0 0 0 0 0 0 0 0 0 0 0 0 0 0 0 0 0 0 0 0 0 0 0 0 0 0 0 0 0 0 0 0 0 0 0 0 0 0
0 0 0 0 0 0 0 0 0 0 0 0 0 0 0 0 0 0 0 0 0 0 0 0 0 0 0 0 0 0 0 0 0 0 0 0 0 0
0 0 0 0 0 0 0 0 0 0 0 0 0 0 0 0 0 0 0 0 0 0 0 0 0 0 0 0 0 0 0 0 0 0 0 0 0 0
0 0 0 0 0 0 0 0 0 0 0 0 0 0 0 0 0 0 0 0 0 0 0 0 0 0 0 0 0 0 0 0 0 0 0 0 0 0
0 0 0 0 0 0 0 0 0 0 0 0 0 0 0 0 0 0 0 0 0 0 0 0 0 0 0 0 0 0 0 0 0 0 0 0 0 0
0 0 0 0 0 0 0 0 0 0 0 0 0 0 0 0 0 0 0 0 0 0 0 0 0 0 0 0 0 0 0 0 0 0 0 0 0 0
Height
5827 5828 5829 5829 5829 5828 5828 5828 5828 5828 5827 5827 5828 5828 5827 5828 5828 5829 5830 5831 5833 5835 5836 5838 5840 5842 5844 5846 5847 5849 5850 5852 5853 5855 5857 5858 5859 5860
5819 5821 5821 5822 5822 5821 5821 5821 5821 5822 5821 5821 5821 5822 5822 5821 5822 5823 5824 5826 5827 5828 5830 5832 5834 5836 5838 5839 5841 5842 5844 5845 5847 5848 5850 5851 5852 5853
5813 5814 5815 5815 5815 5815 5815 5815 5815 5816 5816 5815 5815 5816 5816 5816 5816 5817 5819 5820 5821 5823 5825 5826 5828 5830 5831 5833 5834 5835 5837 5838 5840 5841 5843 5844 5845 5846
5806 5807 5808 5808 5809 5809 5809 5809 5810 5810 5810 5810 5810 5810 5811 5811 5811 5812 5813 5815 5816 5817 5819 5821 5822 5824 5825 5826 5827 5829 5830 5831 5833 5834 5836 5837 5838 5839
5800 5801 5802 5803 5803 5803 5803 5804 5804 5804 5805 5805 5805 5805 5805 5806 5806 5807 5808 5809 5810 5812 5814 5815 5817 5818 5820 5821 5821 5822 5824 5825 5826 5827 5829 5830 5831 5832
5794 5795 5796 5797 5797 5798 5798 5798 5798 5798 5799 5800 5800 5800 5800 5800 5801 5801 5802 5803 5805 5806 5808 5810 5811 5813 5814 5815 5816 5817 5818 5819 5820 5821 5822 5822 5823 5824
5789 5789 5790 5791 5791 5792 5792 5792 5793 5793 5794 5794 5795 5795 5795 5795 5795 5796 5797 5797 5798 5800 5802 5804 5805 5807 5808 5809 5810 5811 5812 5812 5813 5814 5814 5815 5816 5816
5783 5783 5784 5785 5785 5786 5786 5786 5787 5788 5788 5789 5790 5790 5790 5790 5790 5791 5791 5792 5793 5795 5796 5797 5799 5800 5801 5802 5803 5804 5805 5805 5805 5806 5807 5807 5808 5808
5776 5777 5778 5779 5779 5780 5780 5781 5781 5782 5783 5784 5784 5785 5785 5785 5786 5786 5787 5788 5788 5789 5790 5791 5792 5793 5793 5794 5795 5796 5796 5797 5797 5798 5798 5799 5799 5800
5769 5770 5772 5773 5773 5773 5774 5775 5776 5777 5777 5778 5779 5780 5780 5780 5781 5782 5782 5783 5783 5784 5784 5785 5785 5786 5786 5787 5787 5787 5788 5788 5788 5788 5789 5789 5789 5790
5762 5763 5765 5765 5766 5767 5768 5770 5771 5772 5772 5773 5773 5774 5775 5775 5776 5777 5777 5778 5778 5778 5779 5779 5779 5779 5779 5779 5779 5779 5778 5778 5778 5778 5778 5778 5778 5779
5754 5756 5757 5758 5760 5761 5763 5764 5766 5767 5768 5768 5769 5769 5770 5770 5771 5772 5772 5772 5772 5773 5773 5773 5772 5772 5772 5771 5771 5770 5769 5769 5768 5768 5767 5767 5766 5766
5747 5749 5750 5752 5754 5755 5757 5759 5761 5762 5763 5764 5765 5766 5766 5766 5767 5767 5767 5767 5767 5767 5767 5766 5766 5765 5764 5764 5762 5761 5761 5759 5758 5757 5756 5755 5754 5754
5740 5742 5744 5746 5748 5751 5753 5755 5757 5758 5760 5761 5762 5762 5763 5763 5763 5763 5763 5763 5763 5762 5761 5761 5760 5758 5757 5756 5754 5753 5751 5749 5748 5747 5745 5744 5743 5742
5734 5736 5739 5741 5744 5746 5749 5752 5754 5755 5757 5758 5759 5759 5760 5760 5760 5760 5759 5759 5758 5757 5756 5755 5753 5751 5750 5748 5746 5743 5742 5739 5737 5735 5733 5732 5730 5729
5730 5732 5734 5737 5740 5743 5746 5749 5751 5753 5754 5755 5756 5757 5757 5757 5757 5757 5756 5755 5754 5753 5751 5749 5747 5745 5742 5739 5737 5734 5731 5729 5727 5724 5722 5720 5718 5716
5728 5731 5733 5736 5739 5742 5745 5747 5750 5751 5753 5753 5754 5755 5755 5755 5755 5754 5753 5752 5751 5749 5747 5744 5741 5738 5735 5732 5728 5725 5721 5718 5715 5712 5710 5707 5704 5703
5730 5732 5734 5737 5740 5742 5745 5747 5749 5750 5752 5752 5753 5753 5753 5753 5753 5752 5751 5749 5748 5745 5743 5740 5736 5733 5729 5725 5721 5716 5712 5708 5705 5701 5698 5695 5692 5689
5735 5736 5738 5740 5742 5744 5746 5748 5749 5750 5751 5752 5752 5752 5752 5752 5751 5750 5749 5747 5745 5742 5739 5736 5732 5728 5723 5718 5714 5709 5705 5700 5695 5691 5687 5683 5680 5677
5741 5742 5743 5744 5746 5747 5749 5750 5751 5752 5752 5753 5753 5753 5752 5752 5751 5750 5748 5746 5743 5740 5737 5733 5729 5724 5719 5714 5709 5703 5698 5693 5687 5682 5677 5672 5668 5665
5749 5749 5750 5750 5751 5752 5752 5753 5754 5754 5754 5754 5754 5754 5753 5752 5751 5750 5748 5745 5743 5739 5736 5731 5726 5721 5716 5710 5704 5698 5692 5686 5681 5675 5669 5664 5659 5655
5758 5757 5757 5757 5757 5757 5757 5757 5757 5757 5757 5757 5756 5756 5755 5754 5752 5750 5748 5745 5742 5739 5735 5730 5725 5720 5714 5708 5701 5695 5688 5682 5675 5669 5663 5658 5653 5648
5765 5764 5764 5763 5763 5763 5762 5762 5761 5761 5760 5760 5759 5758 5756 5755 5753 5751 5748 5745 5742 5739 5734 5730 5725 5719 5713 5707 5700 5693 5686 5679 5672 5666 5659 5653 5647 5642
Wind_Speed
26 27 27 28 28 28 28 28 27 25 25 26 25 24 24 24 23 22 23 23 23 24 24 25 25 25 26 26 26 26 26 27 27 28 29 29 30 31
25 26 26 26 26 26 26 26 25 24 24 25 25 23 23 22 21 22 22 23 23 23 23 24 24 25 26 26 27 27 27 27 27 27 27 28 28 28
23 23 24 24 24 25 25 24 24 23 22 23 23 22 21 21 21 21 21 22 23 23 23 23 24 25 25 26 26 27 27 27 27 27 27 26 27 27
22 22 23 23 23 23 24 23 23 23 22 22 22 21 21 21 21 21 21 21 22 22 21 21 21 22 23 24 25 26 26 27 27 27 27 27 27 27
21 22 22 22 22 23 23 23 22 22 21 22 21 21 20 21 21 21 21 22 22 22 21 20 21 21 21 22 23 24 25 26 26 27 27 27 27 27
21 22 22 22 22 22 23 22 22 21 21 21 22 21 21 20 21 21 22 23 23 24 23 22 22 22 22 22 23 23 24 25 25 26 26 26 26 27
22 21 21 21 21 22 22 22 22 22 21 21 20 21 21 19 19 20 21 21 21 22 23 24 24 24 24 25 25 24 25 25 26 27 27 27 27 28
22 22 21 21 21 21 21 21 22 22 22 21 21 20 20 19 18 18 19 19 19 20 22 25 27 28 28 28 27 27 28 28 28 29 29 30 30 30
23 22 21 21 21 21 21 21 21 21 21 21 21 20 19 18 17 17 18 17 18 18 20 22 24 26 28 29 29 30 32 32 32 32 32 33 33 33
23 22 21 20 20 20 20 20 20 20 20 20 20 20 19 19 17 17 17 17 17 18 18 20 22 24 26 28 30 32 33 34 35 36 37 37 37 37
23 22 21 20 20 20 19 19 19 19 18 18 18 18 18 18 18 18 18 18 18 19 20 20 22 23 25 26 29 31 32 33 34 36 37 38 39 40
21 21 20 20 20 19 18 17 17 16 16 16 16 16 16 16 16 17 17 18 18 19 20 21 22 23 24 26 28 29 31 32 33 34 36 37 39 40
19 18 18 18 18 17 16 15 14 13 13 13 13 14 14 13 14 14 16 17 17 18 19 21 22 24 25 26 28 30 31 32 33 34 35 36 37 39
16 15 15 15 15 15 14 13 12 11 11 11 10 11 11 11 12 13 14 15 16 17 19 21 22 24 26 28 29 31 32 34 34 35 36 37 38 39
12 12 12 13 13 14 13 12 11 10 9 8 9 9 10 10 11 11 12 14 15 17 19 21 23 24 26 28 30 32 33 34 36 36 37 39 40 40
7 7 8 10 11 12 11 10 9 8 7 7 8 8 8 9 10 10 12 13 15 17 19 21 23 25 27 29 30 32 33 34 35 36 37 38 39 40
3 5 6 7 8 9 8 8 6 5 5 5 5 6 6 7 9 10 12 14 15 17 18 20 23 25 27 29 30 32 33 34 35 36 37 38 40 40
8 8 7 7 7 7 6 5 5 3 2 2 3 4 5 7 8 10 12 13 15 17 19 20 22 24 26 28 29 30 31 32 33 35 36 37 39 40
13 12 10 9 8 7 6 5 3 2 1 1 2 3 5 6 8 9 11 13 14 16 18 19 21 24 25 26 28 28 29 31 32 33 34 35 37 38
18 17 15 13 12 11 9 8 7 6 5 4 5 5 6 7 8 9 11 13 14 17 18 20 22 24 25 26 27 28 28 29 29 30 31 33 34 35
21 20 18 17 15 14 12 11 9 8 8 8 8 8 8 8 9 10 12 13 15 17 19 21 23 24 26 27 28 28 28 28 29 28 28 29 29 30
21 20 19 18 16 15 14 12 11 10 9 9 9 9 9 10 10 11 13 14 16 18 20 22 24 25 26 28 28 29 29 29 28 28 27 27 26 26
20 19 18 16 15 14 14 13 12 11 11 10 10 10 10 11 12 13 14 16 17 19 21 23 24 26 27 28 29 29 30 29 28 28 27 26 26 25
Wind_Direction
263 267 271 274 277 279 281 281 282 282 283 283 281 279 275 268 264 259 253 250 250 250 248 247 248 250 252 254 256 257 259 259 259 258 258 258 257 258
265 268 270 273 276 278 279 280 281 281 282 283 282 279 272 263 260 256 253 250 249 248 248 249 250 251 253 255 256 257 259 260 259 259 259 259 258 259
265 267 270 273 275 277 277 279 279 279 280 281 281 277 271 263 259 256 254 251 248 249 250 250 251 253 254 256 256 257 258 259 260 260 260 259 259 259
264 267 269 271 273 274 274 276 277 277 278 278 279 275 271 264 259 256 255 252 250 249 249 251 253 253 254 256 257 258 258 258 259 260 260 260 260 262
265 267 268 269 270 271 272 273 274 275 276 275 275 273 271 268 260 256 255 252 251 248 247 250 254 255 256 257 258 259 258 258 258 259 260 261 261 261
266 267 267 267 268 269 269 271 271 272 272 272 272 273 273 271 261 257 255 254 253 249 247 247 252 255 256 258 259 260 260 260 260 260 260 260 260 261
266 267 268 269 268 268 268 269 270 270 270 270 271 272 274 274 266 259 257 256 256 254 249 247 250 253 255 258 260 262 264 263 262 261 261 261 261 262
267 268 268 269 269 269 268 268 270 270 268 268 269 271 272 274 274 269 262 260 260 258 255 253 251 252 254 256 257 261 263 263 264 263 262 262 262 262
268 268 268 269 270 269 268 269 269 270 270 269 268 269 273 272 274 275 272 270 269 265 262 260 257 258 258 259 259 261 261 261 262 264 265 265 264 263
268 267 267 267 266 266 265 266 268 269 270 270 270 271 271 273 274 274 271 271 272 273 273 268 265 264 263 263 262 262 264 264 264 265 267 267 266 265
265 264 262 260 260 260 261 262 265 267 268 270 272 272 273 272 274 276 276 274 274 274 274 275 274 274 272 271 270 269 268 267 268 268 269 268 267 267
263 260 258 257 256 257 259 260 262 265 266 267 270 273 274 274 275 276 278 279 278 278 277 278 278 277 277 277 276 275 275 274 273 273 272 271 270 268
260 257 254 253 252 251 252 253 256 260 262 265 269 271 275 277 277 279 280 281 282 282 282 282 283 282 281 280 279 277 277 276 276 276 275 273 271 270
258 254 251 247 242 238 242 246 250 255 261 263 269 273 279 282 282 282 284 285 286 288 288 288 287 286 285 284 283 282 281 280 279 277 276 275 273 273
255 248 242 238 232 229 233 236 242 247 255 262 272 278 283 287 289 291 293 294 295 295 295 294 293 292 291 289 288 286 285 284 283 281 278 277 276 275
248 233 221 218 218 220 222 226 232 241 254 267 276 282 288 292 297 301 303 304 305 305 303 301 300 299 297 295 293 291 289 288 286 284 282 280 279 277
179 185 186 190 193 198 204 210 221 238 257 273 281 287 295 302 306 309 311 313 313 313 312 311 308 306 304 302 299 297 295 292 290 287 285 283 280 278
108 124 137 147 156 165 171 182 197 216 245 280 298 306 312 317 321 322 323 324 325 324 323 321 319 316 313 310 307 305 302 299 296 293 290 287 285 282
90 100 108 115 119 124 129 136 140 140 120 28 6 357 351 346 343 340 339 338 338 338 337 335 333 330 326 322 319 315 311 307 304 301 297 293 290 287
81 87 92 96 98 100 100 98 95 90 79 61 42 26 16 10 6 2 359 356 353 351 349 346 343 340 337 333 330 326 322 319 314 310 306 301 298 294
76 80 83 85 87 87 87 85 81 76 69 59 51 42 35 28 20 14 9 5 2 360 358 356 354 351 348 345 341 338 334 330 327 323 318 314 310 306
72 75 78 80 80 80 79 76 72 67 61 54 47 40 33 26 21 17 13 10 8 6 5 3 1 359 357 354 351 347 343 341 339 336 331 327 322 318
69 70 72 73 73 72 70 67 63 58 54 48 42 36 30 25 20 16 13 11 10 9 7 6 5 4 3 1 358 355 353 350 348 346 344 341 336 332